| time (UTC) | temp C | wind direction | speed KPH | gust KPH | rain 1hr cm | rain 24hr cm | rain mn cm | humidity % | barometer mb |
| 20260502200110 | 18 | 148 | 1.6 | 3.2 | 0.00 | 0.00 | 0.00 | 61 | 1016.1 |
| 20260502194110 | 18 | 124 | 0.0 | 3.2 | 0.00 | 0.00 | 0.00 | 61 | 1016.1 |
| 20260502193110 | 19 | 110 | 0.0 | 1.6 | 0.00 | 0.00 | 0.00 | 60 | 1015.9 |
| 20260502192110 | 20 | 129 | 0.0 | 3.2 | 0.00 | 0.00 | 0.00 | 59 | 1015.9 |
| 20260502191110 | 20 | 128 | 0.0 | 1.6 | 0.00 | 0.00 | 0.00 | 58 | 1015.8 |
| 20260502190109 | 20 | 132 | 0.0 | 1.6 | 0.00 | 0.00 | 0.00 | 57 | 1015.7 |
| 20260502184109 | 21 | 142 | 0.0 | 3.2 | 0.00 | 0.00 | 0.00 | 54 | 1015.6 |
| 20260502182109 | 23 | 122 | 0.0 | 4.8 | 0.00 | 0.00 | 0.00 | 50 | 1015.6 |
| 20260502180109 | 26 | 236 | 0.0 | 1.6 | 0.00 | 0.00 | 0.00 | 41 | 1015.5 |
| 20260502170113 | 27 | 311 | 0.0 | 1.6 | 0.00 | 0.00 | 0.00 | 35 | 1015.5 |
| 20260502163113 | 27 | 287 | 1.6 | 4.8 | 0.00 | 0.00 | 0.00 | 34 | 1015.7 |
| 20260502162113 | 27 | 278 | 1.6 | 6.4 | 0.00 | 0.00 | 0.00 | 34 | 1015.9 |
| 20260502161113 | 27 | 264 | 3.2 | 8.0 | 0.00 | 0.00 | 0.00 | 35 | 1016.2 |
| 20260502160113 | 27 | 255 | 3.2 | 6.4 | 0.00 | 0.00 | 0.00 | 34 | 1016.3 |
| 20260502151112 | 28 | 200 | 1.6 | 4.8 | 0.00 | 0.00 | 0.00 | 31 | 1016.7 |
| 20260502150112 | 28 | 308 | 1.6 | 6.4 | 0.00 | 0.00 | 0.00 | 32 | 1016.8 |
| 20260502140111 | 28 | 258 | 1.6 | 8.0 | 0.00 | 0.00 | 0.00 | 35 | 1017.8 |
| 20260502130111 | 26 | 217 | 3.2 | 9.7 | 0.00 | 0.00 | 0.00 | 38 | 1018.8 |
| 20260502123110 | 26 | 273 | 4.8 | 14.5 | 0.00 | 0.00 | 0.00 | 39 | 1019.2 |
| 20260502122111 | 25 | 160 | 3.2 | 9.7 | 0.00 | 0.00 | 0.00 | 44 | 1019.4 |
| 20260502121110 | 25 | 243 | 4.8 | 14.5 | 0.00 | 0.00 | 0.00 | 42 | 1019.5 |
| 20260502120110 | 25 | 318 | 4.8 | 9.7 | 0.00 | 0.00 | 0.00 | 41 | 1019.6 |
| 20260502114110 | 24 | 184 | 4.8 | 16.1 | 0.00 | 0.00 | 0.00 | 45 | 1019.9 |
| 20260502112110 | 25 | 255 | 4.8 | 12.9 | 0.00 | 0.00 | 0.00 | 42 | 1020.2 |
| 20260502111110 | 25 | 290 | 4.8 | 12.9 | 0.00 | 0.00 | 0.00 | 44 | 1020.4 |
| 20260502110110 | 25 | 278 | 3.2 | 9.7 | 0.00 | 0.00 | 0.00 | 46 | 1020.6 |
| 20260502105110 | 25 | 269 | 4.8 | 9.7 | 0.00 | 0.00 | 0.00 | 44 | 1020.7 |
| 20260502103109 | 24 | 225 | 1.6 | 6.4 | 0.00 | 0.00 | 0.00 | 45 | 1020.9 |
| 20260502102109 | 23 | 219 | 1.6 | 6.4 | 0.00 | 0.00 | 0.00 | 48 | 1021.1 |
| 20260502101109 | 23 | 247 | 4.8 | 14.5 | 0.00 | 0.00 | 0.00 | 46 | 1021.2 |
| 20260502100109 | 23 | 249 | 3.2 | 8.0 | 0.00 | 0.00 | 0.00 | 48 | 1021.3 |
| 20260502091109 | 22 | 260 | 3.2 | 12.9 | 0.00 | 0.00 | 0.00 | 46 | 1021.9 |
| 20260502090108 | 21 | 281 | 4.8 | 12.9 | 0.00 | 0.00 | 0.00 | 47 | 1022.0 |
| 20260502080108 | 18 | 144 | 0.0 | 3.2 | 0.00 | 0.00 | 0.00 | 55 | 1022.5 |
| 20260502071112 | 16 | 98 | 0.0 | 1.6 | 0.00 | 0.00 | 0.00 | 59 | 1022.8 |
| 20260502070112 | 16 | 54 | 0.0 | 3.2 | 0.00 | 0.00 | 0.00 | 59 | 1022.8 |
| 20260502065112 | 15 | 238 | 0.0 | 0.0 | 0.00 | 0.00 | 0.00 | 61 | 1022.9 |
| 20260502063112 | 14 | 126 | 0.0 | 1.6 | 0.00 | 0.00 | 0.00 | 64 | 1022.9 |
| 20260502062112 | 13 | 41 | 0.0 | 1.6 | 0.00 | 0.00 | 0.00 | 65 | 1022.8 |
| 20260502055112 | 11 | 330 | 0.0 | 1.6 | 0.00 | 0.00 | 0.00 | 70 | 1022.9 |
| 20260502054111 | 11 | 245 | 0.0 | 1.6 | 0.00 | 0.00 | 0.00 | 69 | 1022.9 |
| 20260502053111 | 11 | 306 | 0.0 | 1.6 | 0.00 | 0.00 | 0.00 | 70 | 1022.9 |
| 20260502052111 | 11 | 134 | 0.0 | 0.0 | 0.00 | 0.00 | 0.00 | 70 | 1022.8 |
| 20260502051111 | 10 | 110 | 0.0 | 1.6 | 0.00 | 0.00 | 0.00 | 72 | 1022.7 |
| 20260502050111 | 10 | 127 | 0.0 | 1.6 | 0.00 | 0.00 | 0.00 | 75 | 1022.6 |
| 20260502045111 | 9 | 231 | 0.0 | 1.6 | 0.00 | 0.00 | 0.00 | 74 | 1022.7 |
| 20260502043111 | 9 | 124 | 0.0 | 1.6 | 0.00 | 0.00 | 0.00 | 74 | 1022.6 |
| 20260502042111 | 8 | 124 | 0.0 | 1.6 | 0.00 | 0.00 | 0.00 | 76 | 1022.5 |
| 20260502040111 | 9 | 132 | 0.0 | 1.6 | 0.00 | 0.00 | 0.00 | 72 | 1022.7 |
| 20260502033110 | 8 | 288 | 0.0 | 0.0 | 0.00 | 0.00 | 0.00 | 76 | 1022.8 |
| 20260502032110 | 8 | 288 | 0.0 | 0.0 | 0.00 | 0.00 | 0.00 | 76 | 1022.9 |
| 20260502030110 | 8 | 288 | 0.0 | 0.0 | 0.00 | 0.00 | 0.00 | 75 | 1022.7 |
| 20260502025110 | 9 | 288 | 0.0 | 0.0 | 0.00 | 0.00 | 0.00 | 72 | 1022.6 |
| 20260502024110 | 9 | 288 | 0.0 | 0.0 | 0.00 | 0.00 | 0.00 | 72 | 1022.7 |
| 20260502023110 | 9 | 288 | 0.0 | 0.0 | 0.00 | 0.00 | 0.00 | 71 | 1022.7 |
| 20260502021109 | 9 | 281 | 0.0 | 0.0 | 0.00 | 0.00 | 0.00 | 71 | 1022.7 |
| 20260502020110 | 9 | 281 | 0.0 | 0.0 | 0.00 | 0.00 | 0.00 | 72 | 1022.8 |
| 20260502015109 | 9 | 282 | 0.0 | 1.6 | 0.00 | 0.00 | 0.00 | 71 | 1022.8 |
| 20260502014109 | 9 | 281 | 0.0 | 0.0 | 0.00 | 0.00 | 0.00 | 71 | 1022.8 |
| 20260502013109 | 10 | 281 | 0.0 | 1.6 | 0.00 | 0.00 | 0.00 | 69 | 1022.8 |
| 20260502012109 | 10 | 281 | 0.0 | 0.0 | 0.00 | 0.00 | 0.00 | 68 | 1022.8 |
| 20260502011109 | 10 | 281 | 0.0 | 1.6 | 0.00 | 0.00 | 0.00 | 67 | 1022.8 |
| 20260502010109 | 10 | 240 | 0.0 | 1.6 | 0.00 | 0.00 | 0.00 | 66 | 1022.8 |
| 20260502005109 | 10 | 240 | 0.0 | 0.0 | 0.00 | 0.00 | 0.00 | 66 | 1022.7 |
| 20260502004109 | 10 | 240 | 0.0 | 0.0 | 0.00 | 0.00 | 0.00 | 66 | 1022.8 |
| 20260502003109 | 10 | 240 | 0.0 | 0.0 | 0.00 | 0.00 | 0.00 | 66 | 1022.8 |
| 20260502002109 | 10 | 240 | 0.0 | 1.6 | 0.00 | 0.00 | 0.00 | 67 | 1022.9 |
| 20260502001109 | 10 | 120 | 0.0 | 0.0 | 0.00 | 0.00 | 0.00 | 66 | 1022.8 |
| 20260502000109 | 10 | 136 | 0.0 | 1.6 | 0.00 | 0.00 | 0.00 | 67 | 1022.9 |
| 20260501235108 | 10 | 139 | 0.0 | 1.6 | 0.00 | 0.00 | 0.00 | 67 | 1022.9 |
| 20260501234113 | 10 | 139 | 0.0 | 0.0 | 0.00 | 0.00 | 0.00 | 66 | 1023.0 |
| 20260501233113 | 11 | 139 | 0.0 | 0.0 | 0.00 | 0.00 | 0.00 | 66 | 1023.0 |
| 20260501232113 | 11 | 139 | 0.0 | 0.0 | 0.00 | 0.00 | 0.00 | 65 | 1023.1 |
| 20260501231113 | 11 | 139 | 0.0 | 1.6 | 0.00 | 0.00 | 0.00 | 63 | 1023.0 |
| 20260501230113 | 11 | 210 | 0.0 | 1.6 | 0.00 | 0.00 | 0.00 | 64 | 1023.1 |
| 20260501225113 | 11 | 219 | 0.0 | 1.6 | 0.00 | 0.00 | 0.00 | 65 | 1023.1 |
| 20260501224113 | 11 | 83 | 0.0 | 1.6 | 0.00 | 0.00 | 0.00 | 64 | 1023.2 |
| 20260501223113 | 11 | 83 | 0.0 | 0.0 | 0.00 | 0.00 | 0.00 | 63 | 1023.1 |
| 20260501222113 | 12 | 83 | 0.0 | 0.0 | 0.00 | 0.00 | 0.00 | 60 | 1023.1 |
| 20260501221112 | 12 | 83 | 0.0 | 1.6 | 0.00 | 0.00 | 0.00 | 59 | 1022.9 |
| 20260501220112 | 12 | 81 | 0.0 | 0.0 | 0.00 | 0.00 | 0.00 | 59 | 1023.0 |
| 20260501214112 | 13 | 81 | 0.0 | 0.0 | 0.00 | 0.00 | 0.00 | 55 | 1023.0 |
| 20260501213112 | 13 | 84 | 1.6 | 4.8 | 0.00 | 0.00 | 0.00 | 55 | 1023.0 |
| 20260501212112 | 14 | 114 | 0.0 | 3.2 | 0.00 | 0.00 | 0.00 | 55 | 1023.0 |
| 20260501211112 | 14 | 140 | 0.0 | 1.6 | 0.00 | 0.00 | 0.00 | 55 | 1022.9 |
| 20260501210112 | 14 | 155 | 0.0 | 1.6 | 0.00 | 0.00 | 0.00 | 56 | 1022.8 |
| 20260501204111 | 15 | 202 | 0.0 | 0.0 | 0.00 | 0.00 | 0.00 | 57 | 1022.8 |
| 20260501203112 | 15 | 136 | 0.0 | 1.6 | 0.00 | 0.00 | 0.00 | 56 | 1022.8 |
| 20260501202111 | 16 | 127 | 0.0 | 1.6 | 0.00 | 0.00 | 0.00 | 56 | 1022.8 |
| 20260501201111 | 16 | 102 | 1.6 | 8.0 | 0.00 | 0.00 | 0.00 | 57 | 1022.9 |